FW0979 Weather Reports


Display with metric or nautical units.
time (UTC)temp
F
wind
direction
speed
MPH
gust
MPH
rain 1hr
in
rain 24hr
in
rain mn
in
humidity
%
barometer
mb
20260506141503 52 360 6.0 12.0 0.00 0.00 0.00 73 1010.4
20260506140100 51 72 8.0 15.0 0.00 0.00 0.00 73 1010.4
20260506134558 51 65 9.0 14.0 0.00 0.00 0.00 75 1010.2
20260506133107 51 106 8.0 17.0 0.00 0.00 0.00 75 1009.9
20260506131546 52 360 9.0 17.0 0.00 0.00 0.00 74 1009.8
20260506130040 53 94 8.0 14.0 0.00 0.00 0.00 72 1009.4
20260506124532 54 75 5.0 17.0 0.00 0.00 0.00 68 1008.8
20260506123023 56 50 4.0 8.0 0.00 0.00 0.00 60 1008.5
20260506121515 58 345 2.0 7.0 0.00 0.00 0.00 55 1008.2
20260506120007 59 343 4.0 6.0 0.00 0.00 0.00 51 1007.9
20260506114502 60 340 2.0 6.0 0.00 0.00 0.00 48 1007.6
20260506113056 61 340 6.0 9.0 0.00 0.00 0.00 45 1007.7
20260506111551 63 360 5.0 9.0 0.00 0.00 0.00 40 1007.2
20260506110049 63 266 7.0 10.0 0.00 0.00 0.00 40 1007.0
20260506104608 63 360 5.0 10.0 0.00 0.00 0.00 41 1006.8
20260506103043 63 360 5.0 8.0 0.00 0.00 0.00 42 1006.5
20260506101542 63 247 5.0 11.0 0.00 0.00 0.00 44 1006.3
20260506100043 62 238 4.0 9.0 0.00 0.00 0.00 47 1006.3
20260506094538 61 360 3.0 8.0 0.00 0.00 0.00 51 1006.2
20260506093032 61 360 5.0 8.0 0.00 0.00 0.00 55 1006.1
20260506091529 61 360 4.0 7.0 0.00 0.00 0.00 56 1006.1
20260506090025 62 360 5.0 9.0 0.00 0.00 0.00 54 1005.8
20260506084521 62 217 4.0 7.0 0.00 0.00 0.00 54 1005.8
20260506083034 62 360 3.0 7.0 0.00 0.00 0.00 53 1005.7
20260506081516 62 281 3.0 6.0 0.00 0.00 0.00 53 1005.4
20260506073009 63 360 2.0 4.0 0.00 0.00 0.00 51 1005.3
20260506071508 63 360 2.0 5.0 0.00 0.00 0.00 50 1005.3
20260506061555 64 288 4.0 5.0 0.00 0.00 0.00 49 1004.8
20260506044542 66 360 3.0 5.0 0.00 0.00 0.00 44 1004.7
20260506043049 66 287 3.0 6.0 0.00 0.00 0.00 43 1004.7
20260506041545 67 360 5.0 8.0 0.00 0.00 0.00 42 1004.4
20260506040047 67 360 2.0 5.0 0.00 0.00 0.00 43 1004.5
20260506034540 67 295 3.0 6.0 0.00 0.00 0.00 43 1004.5
20260506033038 67 297 3.0 7.0 0.00 0.00 0.00 42 1004.2
20260506031539 68 312 6.0 10.0 0.00 0.00 0.00 41 1003.8
20260506030037 69 293 6.0 10.0 0.00 0.00 0.00 39 1003.7
20260506024543 70 281 6.0 10.0 0.00 0.00 0.00 37 1003.8
20260506023036 71 360 8.0 15.0 0.00 0.00 0.00 36 1003.8
20260506021550 72 360 9.0 15.0 0.00 0.00 0.00 35 1003.5
20260506020034 72 277 11.0 14.0 0.00 0.00 0.00 34 1003.4
20260506014534 72 290 10.0 18.0 0.00 0.00 0.00 34 1003.3
20260506013033 72 284 9.0 15.0 0.00 0.00 0.00 33 1003.1
20260506011533 73 276 13.0 19.0 0.00 0.00 0.00 33 1002.9
20260506010044 73 289 13.0 18.0 0.00 0.00 0.00 32 1002.8
20260506004530 74 360 14.0 23.0 0.00 0.00 0.00 31 1002.8
20260506003030 75 276 16.0 25.0 0.00 0.00 0.00 31 1002.9
20260506001528 75 297 15.0 24.0 0.00 0.00 0.00 30 1002.8
20260506000028 76 294 20.0 31.0 0.00 0.00 0.00 30 1002.9
20260505234535 76 264 16.0 27.0 0.00 0.00 0.00 29 1002.7
20260505233029 77 283 15.0 29.0 0.00 0.00 0.00 28 1002.6
20260505231529 78 302 22.0 34.0 0.00 0.00 0.00 27 1002.4
20260505230024 77 245 10.0 20.0 0.00 0.00 0.00 27 1002.3
20260505224527 77 259 10.0 19.0 0.00 0.00 0.00 27 1002.4
20260505223019 76 269 12.0 19.0 0.00 0.00 0.00 28 1002.5
20260505221617 76 360 11.0 22.0 0.00 0.00 0.00 28 1002.6
20260505220013 75 274 12.0 22.0 0.00 0.00 0.00 29 1002.7
20260505214514 75 283 10.0 22.0 0.00 0.00 0.00 28 1003.1
20260505213016 75 360 12.0 22.0 0.00 0.00 0.00 27 1003.3
20260505211527 75 284 15.0 27.0 0.00 0.00 0.00 26 1003.6
20260505210011 76 272 13.0 25.0 0.00 0.00 0.00 27 1003.7
20260505204508 75 265 12.0 23.0 0.00 0.00 0.00 28 1003.4
20260505203004 75 360 12.0 19.0 0.00 0.00 0.00 27 1003.5
20260505201506 75 266 11.0 20.0 0.00 0.00 0.00 29 1003.7
20260505200003 75 281 14.0 23.0 0.00 0.00 0.00 29 1003.8
20260505194504 75 276 13.0 22.0 0.00 0.00 0.00 29 1003.8
20260505193001 75 252 9.0 18.0 0.00 0.00 0.00 30 1003.8
20260505191602 75 277 11.0 18.0 0.00 0.00 0.00 30 1003.9
20260505190057 75 272 9.0 16.0 0.00 0.00 0.00 30 1004.1
20260505184558 74 360 9.0 16.0 0.00 0.00 0.00 29 1004.2
20260505183057 75 277 8.0 15.0 0.00 0.00 0.00 28 1004.5
20260505181553 75 243 6.0 13.0 0.00 0.00 0.00 29 1004.6
20260505180057 74 248 5.0 12.0 0.00 0.00 0.00 29 1004.4
20260505174549 74 261 6.0 13.0 0.00 0.00 0.00 29 1004.5
20260505173047 74 274 5.0 8.0 0.00 0.00 0.00 30 1004.4
20260505171546 74 290 5.0 9.0 0.00 0.00 0.00 31 1004.6
20260505170044 73 360 6.0 10.0 0.00 0.00 0.00 32 1004.9
20260505164542 73 285 6.0 12.0 0.00 0.00 0.00 32 1004.8
20260505163040 73 296 8.0 12.0 0.00 0.00 0.00 32 1004.9
20260505161540 73 284 7.0 11.0 0.00 0.00 0.00 32 1004.7
20260505153034 71 274 5.0 10.0 0.00 0.00 0.00 34 1004.8
20260505151539 70 360 4.0 8.0 0.00 0.00 0.00 35 1004.6